Zurück zum Katalog

Taurus 1

TAURUS-1

AktivAmateurfunkPO
NORAD 44530·PAYLOAD·🇨🇳 China

Gestartet Sep 12, 2019 von Taiyuan Satellite Launch Center

Loading…

Nächste Überflüge (nächste 24 Stunden)

TLE

AktuellSource: Space-Track

Epoche: Sep 14, 2026, 14:22 UTC

1 44530U 19059C   26257.59903887  .00003892  00000-0  61595-3 0  9992
2 44530  98.6494  68.0804 0008911  37.1520 323.0301 14.72883218371806

Verfolge Taurus 1 in Echtzeit mit AllMySat

Download on the App Store